Terminal Aerodrome Forecast
Issued by NWS Milwaukee/Sullivan, WI

Home | Current Version | Previous Version | Text Only | Print | Product List | Glossary On
Versions: 1 2 3 4 5 6 7 8 9 10 11 12 13 14 15 16 17 18 19 20 21 22 23 24 25 26 27 28 29 30 31 32 33 34 35 36 37 38 39 40 41 42 43 44 45 46 47 48 49 50
638
FTUS43 KMKX 060538
TAFMSN
TAF
KMSN 060538Z 0606/0706 22006KT P6SM SCT040 OVC070
     FM060900 22004KT P6SM SCT025 OVC040
     FM061100 22004KT P6SM OVC022
     FM061800 23007KT P6SM SCT025 BKN120
     FM070100 21007KT P6SM BKN080=

USA.gov is the U.S. government's official web portal to all federal, state and local government web resources and services.